This is the latest recevied weather packets stored in our database for station/object KC2G. If no packets are shown the sender has not sent any weather packets the latest 10 day(s).
| Time | Temp. | Humidity | Pressure | Rain* | Wind** | Luminosity | Snow |
|---|---|---|---|---|---|---|---|
| 1777374955 | 4.44° C | 99% | 1021.7 hPa | 0 mm | 0 m/s | - | - |
| 1777374055 | 3.89° C | 99% | 1021.5 hPa | 0 mm | 0 m/s | - | - |
| 1777373155 | 3.33° C | 99% | 1021.5 hPa | 0 mm | 0 m/s | - | - |
| 1777372254 | 3.33° C | 99% | 1021.6 hPa | 0 mm | 0 m/s | - | - |
| 1777371355 | 3.33° C | 99% | 1021.6 hPa | 0 mm | 0 m/s | - | - |
| 1777370455 | 3.33° C | 99% | 1021.8 hPa | 0 mm | 0 m/s | - | - |
| 1777369554 | 3.89° C | 99% | 1021.9 hPa | 0 mm | 0 m/s | - | - |
| 1777368688 | 3.89° C | 99% | 1021.9 hPa | 0 mm | 0 m/s | - | - |
| 1777368655 | 3.89° C | 99% | 1021.9 hPa | 0 mm | 0 m/s | - | - |
| 1777367756 | 3.89° C | 99% | 1021.9 hPa | 0 mm | 0 m/s | - | - |
| 1777366855 | 3.89° C | 99% | 1022 hPa | 0 mm | 0 m/s | - | - |
| 1777366566 | 3.89° C | 99% | 1021.8 hPa | 0 mm | 0.45 m/s, 241° | - | - |
| 1777365955 | 3.89° C | 99% | 1021.8 hPa | 0 mm | 0.45 m/s, 241° | - | - |
| 1777365144 | 4.44° C | 99% | 1021.8 hPa | 0 mm | 0 m/s | - | - |
| 1777365055 | 4.44° C | 99% | 1021.8 hPa | 0 mm | 0 m/s | - | - |
| 1777364158 | 4.44° C | 99% | 1021.8 hPa | 0 mm | 0 m/s | - | - |
| 1777363552 | 4.44° C | 99% | 1021.8 hPa | 0 mm | 0 m/s | - | - |
| 1777363255 | 4.44° C | 99% | 1021.8 hPa | 0 mm | 0 m/s | - | - |
| 1777362355 | 4.44° C | 99% | 1021.7 hPa | 0 mm | 0 m/s | - | - |
| 1777361454 | 5° C | 99% | 1021.7 hPa | 0 mm | 0 m/s | - | - |
| 1777361264 | 5° C | 100% | 1021.8 hPa | 0 mm | 0 m/s | - | - |
| 1777360555 | 5° C | 100% | 1021.8 hPa | 0 mm | 0 m/s | - | - |
| 1777359656 | 5° C | 99% | 1021.9 hPa | 0 mm | 0 m/s | - | - |
| 1777358159 | 5.56° C | 98% | 1022.2 hPa | 0 mm | 0 m/s | - | - |
| 1777357855 | 5.56° C | 98% | 1022.2 hPa | 0 mm | 0 m/s | - | - |
* Rain latest hour (hover to see other rain measurements)
** Current wind speed in m/s (hover to see current wind gust speed)